Terminal Aerodrome Forecast
Issued by NWS

Home | Current Version | Previous Version | Text Only | Print | Product List | Glossary Off
Versions: 1 2 3 4 5 6 7 8 9 10 11 12 13 14 15 16 17 18 19 20 21 22 23 24 25 26 27

000
FTUS43 KGRB 181300 AAA
TAFAUW
TAF AMD
KAUW 181330Z 1814/1912 13005KT P6SM OVC005
      TEMPO 1814/1815 3SM TSRA OVC010CB
     FM181800 17007KT P6SM VCTS BKN025CB
      TEMPO 1820/1824 3SM -SHRA BKN012
     FM190000 16006KT 5SM -SHRA BKN018
     FM190600 VRB03KT 4SM -SHRA BR BKN005=

USA.gov is the U.S. government's official web portal to all federal, state and local government web resources and services.